Regional Weather Roundup
Issued by NWS Little Rock, AR

Home | Current Version | Previous Version | Text Only | Print | Product List | Glossary On
Versions: 1 2 3 4 5 6 7 8 9 10 11 12 13 14 15 16 17 18 19 20 21 22 23 24 25 26 27 28 29 30 31 32 33 34 35 36 37 38 39 40 41 42 43 44 45 46 47 48 49 50
000
ASUS44 KLZK 271205
RWRLZK

WEATHER ROUNDUP FOR ARKANSAS
NATIONAL WEATHER SERVICE LITTLE ROCK AR
600 AM CST TUE JAN 27 2015

NOTE: "FAIR" INDICATES FEW OR NO CLOUDS BELOW 12,000 FEET WITH NO
SIGNIFICANT WEATHER AND/OR OBSTRUCTIONS TO VISIBILITY.

ARZ001-003-010-029-271300-
NORTHWEST ARKANSAS

CITY           SKY/WX    TMP DP  RH WIND       PRES   REMARKS
FAYETTEVILLE   CLEAR     29  28  96 CALM      30.10R
6HR MIN TEMP:  27; 6HR MAX TEMP:  34;

FORT SMITH     CLEAR     40  34  79 W7        30.10R
6HR MIN TEMP:  34; 6HR MAX TEMP:  47;

HARRISON       CLEAR     43  32  65 W6        30.08R
6HR MIN TEMP:  43; 6HR MAX TEMP:  50;

BENTONVILLE    CLEAR     34  28  80 CALM      30.10R
6HR MIN TEMP:  34; 6HR MAX TEMP:  41;

ROGERS         CLEAR     40  33  76 CALM      30.10R
6HR MIN TEMP:  36; 6HR MAX TEMP:  46;

SILOAM SPGS    CLEAR     34  27  75 CALM      30.11R
HIGHFILL       CLEAR     36  31  82 N5        30.09R
6HR MIN TEMP:  34; 6HR MAX TEMP:  48;

SPRINGDALE     CLEAR     34  30  86 CALM      30.11
$$

ARZ004-005-016-271300-
NORTH CENTRAL ARKANSAS

CITY           SKY/WX    TMP DP  RH WIND       PRES   REMARKS
BATESVILLE     CLEAR     43  34  70 W5        30.06R
6HR MIN TEMP:  43; 6HR MAX TEMP:  48;

FLIPPIN        CLEAR     45  30  57 NW5       30.07R
6HR MIN TEMP:  39; 6HR MAX TEMP:  46;

MTN HOME       CLEAR     39  34  82 NW3       30.06R
6HR MIN TEMP:  36; 6HR MAX TEMP:  46;

$$

ARZ040-041-271300-
WEST CENTRAL ARKANSAS

CITY           SKY/WX    TMP DP  RH WIND       PRES   REMARKS
MENA           CLEAR     37  36  93 CALM      30.09R
MOUNT IDA      CLEAR     36  32  85 CALM      30.05R
6HR MIN TEMP:  36; 6HR MAX TEMP:  49;

$$

ARZ009-017-025-026-028-271300-
NORTHEAST ARKANSAS

CITY           SKY/WX    TMP DP  RH WIND       PRES   REMARKS
JONESBORO      CLEAR     40  35  83 NW7       30.03R
6HR MIN TEMP:  38; 6HR MAX TEMP:  44;

NEWPORT        CLEAR     41  35  79 W8        30.06R
6HR MIN TEMP:  40; 6HR MAX TEMP:  44;

WALNUT RIDGE   CLEAR     36  28  75 NW7       30.04R
6HR MIN TEMP:  36; 6HR MAX TEMP:  45;

BLYTHEVILLE    CLEAR     36  33  89 NW10      30.02R
6HR MIN TEMP:  34; 6HR MAX TEMP:  39;

$$

ARZ022-023-033-042-044-271300-
CENTRAL ARKANSAS

CITY           SKY/WX    TMP DP  RH WIND       PRES   REMARKS
LITTLE ROCK    CLEAR     42  34  73 NW6       30.07R
6HR MIN TEMP:  39; 6HR MAX TEMP:  47;

N LITTLE ROCK    N/A     48  39  69 NW6       30.07R
6HR MIN TEMP:  48; 6HR MAX TEMP:  52;

JACKSONVILLE   CLEAR     34  31  89 W3        30.07R
6HR MIN TEMP:  34; 6HR MAX TEMP:  49;

SEARCY         CLEAR     33  31  92 CALM      30.08R
6HR MIN TEMP:  33; 6HR MAX TEMP:  45;

HOT SPRINGS    CLEAR     37  34  89 W3        30.08R
6HR MIN TEMP:  36; 6HR MAX TEMP:  44;

RUSSELLVILLE   CLEAR     31  29  92 CALM      30.07R
6HR MIN TEMP:  31; 6HR MAX TEMP:  36;

CLINTON        FAIR      28  28 100 CALM      30.10R
$$

ARZ036-271300-
EAST ARKANSAS

CITY           SKY/WX    TMP DP  RH WIND       PRES   REMARKS
WEST MEMPHIS   CLEAR     39  34  82 NW6       30.01R
6HR MIN TEMP:  33; 6HR MAX TEMP:  40;

$$

ARZ050-053-066-070-073-271300-
SOUTHWEST ARKANSAS

CITY           SKY/WX    TMP DP  RH WIND       PRES   REMARKS
ARKADELPHIA    FAIR      33  33 100 CALM      30.09R
6HR MIN TEMP:  33; 6HR MAX TEMP:  40;

CAMDEN         CLEAR     32  30  93 CALM      30.07R
TEXARKANA      CLEAR     40  36  86 SW3       30.07R
6HR MIN TEMP:  40; 6HR MAX TEMP:  48;

EL DORADO      CLEAR     37  34  89 CALM      30.07R
6HR MIN TEMP:  36; 6HR MAX TEMP:  48;

DE QUEEN       CLEAR     32  31  96 CALM      30.07R
6HR MIN TEMP:  31; 6HR MAX TEMP:  37;

$$

ARZ056-057-069-271300-
SOUTHEAST ARKANSAS

CITY           SKY/WX    TMP DP  RH WIND       PRES   REMARKS
PINE BLUFF     CLEAR     38  33  82 CALM      30.06R
6HR MIN TEMP:  38; 6HR MAX TEMP:  50;

STUTTGART      CLEAR     41  34  75 NW12      30.06R
6HR MIN TEMP:  37; 6HR MAX TEMP:  45;

MONTICELLO     CLEAR     41  35  79 W6        30.05R
6HR MIN TEMP:  41; 6HR MAX TEMP:  47;


$$




USA.gov is the U.S. government's official web portal to all federal, state and local government web resources and services.